| time (UTC) | temp F | wind direction | speed knots | gust knots | rain 1hr in | rain 24hr in | rain mn in | humidity % | barometer mb |
| 20260505153134 | 53 | 123 | 6.1 | 13.0 | 0.00 | 0.00 | 0.00 | 56 | 1008.0 |
| 20260505152637 | 53 | 261 | 7.8 | 13.9 | 0.00 | 0.00 | 0.00 | 55 | 1007.9 |
| 20260505152133 | 53 | 205 | 7.8 | 13.9 | 0.00 | 0.00 | 0.00 | 55 | 1007.9 |
| 20260505151632 | 52 | 155 | 7.8 | 18.2 | 0.00 | 0.00 | 0.00 | 57 | 1007.9 |
| 20260505151547 | 52 | 159 | 7.8 | 18.2 | 0.00 | 0.00 | 0.00 | 58 | 1007.9 |
| 20260505150630 | 52 | 120 | 7.8 | 17.4 | 0.00 | 0.00 | 0.00 | 59 | 1007.9 |
| 20260505150130 | 52 | 177 | 7.8 | 17.4 | 0.00 | 0.00 | 0.00 | 59 | 1008.0 |
| 20260505140133 | 51 | 190 | 7.8 | 16.5 | 0.00 | 0.00 | 0.00 | 65 | 1007.9 |
| 20260505130133 | 54 | 126 | 5.2 | 18.2 | 0.00 | 0.00 | 0.00 | 59 | 1007.0 |
| 20260505125037 | 55 | 196 | 5.2 | 10.4 | 0.00 | 0.00 | 0.00 | 56 | 1007.0 |
| 20260505124131 | 56 | 161 | 4.3 | 9.6 | 0.00 | 0.00 | 0.00 | 55 | 1006.9 |
| 20260505123629 | 56 | 182 | 3.5 | 8.7 | 0.00 | 0.00 | 0.00 | 54 | 1006.8 |
| 20260505123128 | 56 | 165 | 2.6 | 7.8 | 0.00 | 0.00 | 0.00 | 50 | 1006.6 |
| 20260505122631 | 56 | 105 | 3.5 | 7.8 | 0.00 | 0.00 | 0.00 | 50 | 1006.5 |
| 20260505122126 | 56 | 138 | 4.3 | 10.4 | 0.00 | 0.00 | 0.00 | 50 | 1006.5 |
| 20260505122049 | 56 | 238 | 4.3 | 10.4 | 0.00 | 0.00 | 0.00 | 50 | 1006.5 |
| 20260505121131 | 56 | 184 | 4.3 | 8.7 | 0.00 | 0.00 | 0.00 | 51 | 1006.6 |
| 20260505120938 | 56 | 161 | 5.2 | 14.8 | 0.00 | 0.00 | 0.00 | 50 | 1006.6 |
| 20260505120802 | 56 | 185 | 4.3 | 8.7 | 0.00 | 0.00 | 0.00 | 51 | 1006.6 |
| 20260505115622 | 56 | 163 | 7.0 | 17.4 | 0.00 | 0.00 | 0.00 | 50 | 1006.5 |
| 20260505115126 | 56 | 146 | 7.8 | 17.4 | 0.00 | 0.00 | 0.00 | 52 | 1006.5 |
| 20260505114625 | 56 | 148 | 7.0 | 16.5 | 0.00 | 0.00 | 0.00 | 52 | 1006.6 |
| 20260505114123 | 56 | 145 | 6.1 | 12.2 | 0.00 | 0.00 | 0.00 | 51 | 1006.5 |
| 20260505113625 | 56 | 196 | 6.1 | 12.2 | 0.00 | 0.00 | 0.00 | 52 | 1006.5 |
| 20260505113216 | 56 | 144 | 3.5 | 9.6 | 0.00 | 0.00 | 0.00 | 53 | 1006.5 |
| 20260505113147 | 56 | 145 | 6.1 | 12.2 | 0.00 | 0.00 | 0.00 | 52 | 1006.6 |
| 20260505112120 | 56 | 123 | 3.5 | 7.0 | 0.00 | 0.00 | 0.00 | 53 | 1006.5 |
| 20260505111621 | 56 | 225 | 4.3 | 8.7 | 0.00 | 0.00 | 0.00 | 53 | 1006.5 |
| 20260505111319 | 56 | 212 | 5.2 | 10.4 | 0.00 | 0.00 | 0.00 | 53 | 1006.5 |
| 20260505111152 | 56 | 172 | 4.3 | 10.4 | 0.00 | 0.00 | 0.00 | 53 | 1006.5 |
| 20260505110117 | 56 | 144 | 4.3 | 10.4 | 0.00 | 0.00 | 0.00 | 53 | 1006.5 |
| 20260505102143 | 56 | 193 | 3.5 | 7.8 | 0.00 | 0.00 | 0.00 | 51 | 1006.5 |
| 20260505101104 | 57 | 175 | 2.6 | 6.1 | 0.00 | 0.00 | 0.00 | 52 | 1006.5 |
| 20260505100605 | 57 | 212 | 2.6 | 5.2 | 0.00 | 0.00 | 0.00 | 52 | 1006.5 |
| 20260505095603 | 57 | 155 | 3.5 | 9.6 | 0.00 | 0.00 | 0.00 | 53 | 1006.6 |
| 20260505095102 | 57 | 226 | 2.6 | 9.6 | 0.00 | 0.00 | 0.00 | 52 | 1006.8 |
| 20260505094609 | 57 | 210 | 1.7 | 5.2 | 0.00 | 0.00 | 0.00 | 52 | 1006.8 |
| 20260505094108 | 57 | 178 | 0.9 | 4.3 | 0.00 | 0.00 | 0.00 | 52 | 1006.9 |
| 20260505093605 | 57 | 152 | 0.9 | 2.6 | 0.00 | 0.00 | 0.00 | 54 | 1006.8 |
| 20260505093158 | 57 | 152 | 1.7 | 4.3 | 0.00 | 0.00 | 0.00 | 55 | 1006.9 |
| 20260505093114 | 57 | 152 | 0.9 | 4.3 | 0.00 | 0.00 | 0.00 | 55 | 1006.8 |
| 20260505092105 | 57 | 152 | 1.7 | 4.3 | 0.00 | 0.00 | 0.00 | 55 | 1006.9 |
| 20260505091602 | 57 | 152 | 1.7 | 4.3 | 0.00 | 0.00 | 0.00 | 55 | 1006.9 |
| 20260505091137 | 58 | 152 | 2.6 | 5.2 | 0.00 | 0.00 | 0.00 | 54 | 1006.9 |
| 20260505091111 | 58 | 152 | 1.7 | 5.2 | 0.00 | 0.00 | 0.00 | 55 | 1006.9 |
| 20260505090026 | 58 | 120 | 4.3 | 8.7 | 0.00 | 0.00 | 0.00 | 52 | 1006.9 |
| 20260505085109 | 58 | 182 | 3.5 | 8.7 | 0.00 | 0.00 | 0.00 | 50 | 1006.9 |
| 20260505084613 | 58 | 167 | 4.3 | 11.3 | 0.00 | 0.00 | 0.00 | 50 | 1007.0 |
| 20260505084117 | 58 | 212 | 5.2 | 12.2 | 0.00 | 0.00 | 0.00 | 49 | 1006.9 |
| 20260505083612 | 58 | 202 | 5.2 | 12.2 | 0.00 | 0.00 | 0.00 | 47 | 1006.9 |
| 20260505083110 | 58 | 151 | 5.2 | 12.2 | 0.00 | 0.00 | 0.00 | 47 | 1006.9 |
| 20260505082955 | 58 | 200 | 6.1 | 12.2 | 0.00 | 0.00 | 0.00 | 47 | 1006.9 |
| 20260505082117 | 58 | 144 | 6.1 | 11.3 | 0.00 | 0.00 | 0.00 | 48 | 1006.9 |
| 20260505081607 | 58 | 150 | 7.0 | 13.9 | 0.00 | 0.00 | 0.00 | 48 | 1006.9 |
| 20260505081101 | 58 | 185 | 7.0 | 14.8 | 0.00 | 0.00 | 0.00 | 48 | 1006.9 |
| 20260505080603 | 58 | 164 | 7.0 | 14.8 | 0.00 | 0.00 | 0.00 | 48 | 1006.8 |
| 20260505080104 | 58 | 201 | 6.1 | 13.9 | 0.00 | 0.00 | 0.00 | 48 | 1006.9 |
| 20260505075601 | 58 | 216 | 7.0 | 13.9 | 0.00 | 0.00 | 0.00 | 48 | 1006.9 |
| 20260505075054 | 58 | 138 | 7.8 | 15.6 | 0.00 | 0.00 | 0.00 | 48 | 1006.9 |
| 20260505074550 | 58 | 130 | 7.0 | 15.6 | 0.00 | 0.00 | 0.00 | 49 | 1006.8 |
| 20260505074049 | 58 | 218 | 6.1 | 13.9 | 0.00 | 0.00 | 0.00 | 50 | 1006.8 |
| 20260505073548 | 58 | 203 | 6.1 | 15.6 | 0.00 | 0.00 | 0.00 | 50 | 1006.8 |
| 20260505073045 | 58 | 178 | 7.8 | 18.2 | 0.00 | 0.00 | 0.00 | 51 | 1006.8 |
| 20260505072547 | 58 | 150 | 8.7 | 20.0 | 0.00 | 0.00 | 0.00 | 52 | 1006.6 |
| 20260505072034 | 57 | 133 | 8.7 | 20.0 | 0.00 | 0.00 | 0.00 | 54 | 1006.6 |
| 20260505071540 | 56 | 143 | 7.0 | 16.5 | 0.00 | 0.00 | 0.00 | 56 | 1006.6 |
| 20260505071032 | 56 | 225 | 7.0 | 19.1 | 0.00 | 0.00 | 0.00 | 58 | 1006.6 |
| 20260505070918 | 56 | 215 | 8.7 | 19.1 | 0.00 | 0.00 | 0.00 | 62 | 1006.6 |
| 20260505070034 | 56 | 223 | 9.6 | 20.9 | 0.00 | 0.00 | 0.00 | 63 | 1006.6 |
| 20260505065538 | 56 | 233 | 8.7 | 20.9 | 0.00 | 0.00 | 0.00 | 64 | 1006.9 |
| 20260505065037 | 56 | 164 | 8.7 | 19.1 | 0.00 | 0.00 | 0.00 | 64 | 1006.9 |
| 20260505064937 | 56 | 212 | 8.7 | 19.1 | 0.00 | 0.00 | 0.00 | 64 | 1007.0 |
| 20260505064921 | 56 | 160 | 7.0 | 17.4 | 0.00 | 0.00 | 0.00 | 64 | 1007.1 |
| 20260505063532 | 56 | 204 | 7.0 | 15.6 | 0.00 | 0.00 | 0.00 | 65 | 1007.1 |
| 20260505063036 | 56 | 248 | 7.8 | 15.6 | 0.00 | 0.00 | 0.00 | 65 | 1007.1 |
| 20260505062530 | 56 | 214 | 8.7 | 15.6 | 0.00 | 0.00 | 0.00 | 66 | 1007.1 |
| 20260505062034 | 56 | 212 | 8.7 | 20.0 | 0.00 | 0.00 | 0.00 | 65 | 1007.2 |
| 20260505062026 | 56 | 193 | 8.7 | 20.0 | 0.00 | 0.00 | 0.00 | 66 | 1007.2 |
| 20260505061034 | 56 | 144 | 9.6 | 19.1 | 0.00 | 0.00 | 0.00 | 66 | 1007.1 |
| 20260505060530 | 56 | 161 | 8.7 | 20.9 | 0.00 | 0.00 | 0.00 | 66 | 1007.1 |
| 20260505060404 | 57 | 246 | 8.7 | 20.9 | 0.00 | 0.00 | 0.00 | 66 | 1007.1 |
| 20260505055529 | 57 | 188 | 10.4 | 20.0 | 0.00 | 0.00 | 0.00 | 65 | 1007.2 |
| 20260505055416 | 57 | 191 | 10.4 | 19.1 | 0.00 | 0.00 | 0.00 | 64 | 1007.2 |
| 20260505054529 | 57 | 212 | 8.7 | 21.7 | 0.00 | 0.00 | 0.00 | 63 | 1007.1 |
| 20260505054032 | 57 | 173 | 9.6 | 21.7 | 0.00 | 0.00 | 0.00 | 63 | 1007.2 |
| 20260505053529 | 57 | 228 | 10.4 | 20.0 | 0.00 | 0.00 | 0.00 | 62 | 1007.2 |
| 20260505053351 | 57 | 193 | 10.4 | 23.5 | 0.00 | 0.00 | 0.00 | 61 | 1007.2 |
| 20260505052919 | 57 | 140 | 10.4 | 23.5 | 0.00 | 0.00 | 0.00 | 61 | 1007.4 |
| 20260505052030 | 58 | 196 | 11.3 | 21.7 | 0.00 | 0.00 | 0.00 | 61 | 1007.3 |
| 20260505051530 | 58 | 184 | 9.6 | 21.7 | 0.00 | 0.00 | 0.00 | 59 | 1007.2 |
| 20260505051029 | 58 | 147 | 9.6 | 20.0 | 0.00 | 0.00 | 0.00 | 59 | 1007.1 |
| 20260505050602 | 58 | 200 | 11.3 | 23.5 | 0.00 | 0.00 | 0.00 | 59 | 1006.9 |
| 20260505050542 | 58 | 149 | 11.3 | 23.5 | 0.00 | 0.00 | 0.00 | 59 | 1006.9 |
| 20260505041531 | 61 | 208 | 9.6 | 20.0 | 0.00 | 0.00 | 0.00 | 53 | 1006.3 |
| 20260505041033 | 61 | 252 | 8.7 | 23.5 | 0.00 | 0.00 | 0.00 | 51 | 1006.2 |
| 20260505040529 | 62 | 223 | 7.8 | 23.5 | 0.00 | 0.00 | 0.00 | 50 | 1005.8 |
| 20260505040029 | 62 | 166 | 7.0 | 15.6 | 0.00 | 0.00 | 0.00 | 48 | 1005.8 |
| 20260505035529 | 62 | 239 | 6.1 | 12.2 | 0.00 | 0.00 | 0.00 | 47 | 1005.8 |
| 20260505035459 | 63 | 219 | 5.2 | 12.2 | 0.00 | 0.00 | 0.00 | 47 | 1005.8 |
| 20260505034526 | 63 | 212 | 6.1 | 16.5 | 0.00 | 0.00 | 0.00 | 46 | 1005.8 |
| 20260505034026 | 64 | 221 | 7.0 | 16.5 | 0.00 | 0.00 | 0.00 | 44 | 1005.6 |
| 20260505033528 | 64 | 252 | 7.0 | 13.9 | 0.00 | 0.00 | 0.00 | 41 | 1005.6 |
| 20260505033024 | 64 | 225 | 6.1 | 13.0 | 0.00 | 0.00 | 0.00 | 39 | 1005.5 |
| 20260505032527 | 64 | 197 | 6.1 | 11.3 | 0.00 | 0.00 | 0.00 | 39 | 1005.3 |
| 20260505032022 | 64 | 177 | 5.2 | 11.3 | 0.00 | 0.00 | 0.00 | 39 | 1005.3 |
| 20260505031526 | 64 | 210 | 5.2 | 11.3 | 0.00 | 0.00 | 0.00 | 39 | 1005.3 |
| 20260505031022 | 65 | 208 | 6.1 | 10.4 | 0.00 | 0.00 | 0.00 | 39 | 1005.1 |
| 20260505030521 | 65 | 223 | 6.1 | 14.8 | 0.00 | 0.00 | 0.00 | 39 | 1004.9 |
| 20260505030025 | 65 | 205 | 6.1 | 14.8 | 0.00 | 0.00 | 0.00 | 39 | 1004.9 |
| 20260505025518 | 65 | 201 | 6.1 | 11.3 | 0.00 | 0.00 | 0.00 | 39 | 1004.9 |
| 20260505025012 | 65 | 175 | 6.1 | 15.6 | 0.00 | 0.00 | 0.00 | 38 | 1004.9 |
| 20260505024509 | 65 | 174 | 6.1 | 15.6 | 0.00 | 0.00 | 0.00 | 36 | 1004.9 |
| 20260505024011 | 65 | 165 | 6.1 | 12.2 | 0.00 | 0.00 | 0.00 | 38 | 1004.8 |
| 20260505023512 | 65 | 171 | 5.2 | 10.4 | 0.00 | 0.00 | 0.00 | 38 | 1004.9 |
| 20260505023009 | 66 | 188 | 4.3 | 10.4 | 0.00 | 0.00 | 0.00 | 38 | 1004.9 |
| 20260505022508 | 66 | 183 | 4.3 | 10.4 | 0.00 | 0.00 | 0.00 | 37 | 1004.8 |
| 20260505022417 | 66 | 182 | 4.3 | 8.7 | 0.00 | 0.00 | 0.00 | 37 | 1004.8 |
| 20260505021508 | 66 | 219 | 4.3 | 7.8 | 0.00 | 0.00 | 0.00 | 36 | 1004.9 |
| 20260505021004 | 66 | 207 | 4.3 | 8.7 | 0.00 | 0.00 | 0.00 | 37 | 1004.7 |
| 20260505020505 | 66 | 226 | 3.5 | 8.7 | 0.00 | 0.00 | 0.00 | 36 | 1004.7 |
| 20260505020002 | 67 | 248 | 3.5 | 8.7 | 0.00 | 0.00 | 0.00 | 37 | 1004.7 |
| 20260505015504 | 67 | 194 | 4.3 | 9.6 | 0.00 | 0.00 | 0.00 | 36 | 1004.8 |
| 20260505015007 | 67 | 200 | 4.3 | 9.6 | 0.00 | 0.00 | 0.00 | 36 | 1004.7 |
| 20260505014504 | 67 | 157 | 4.3 | 9.6 | 0.00 | 0.00 | 0.00 | 36 | 1004.6 |
| 20260505014004 | 68 | 162 | 4.3 | 9.6 | 0.00 | 0.00 | 0.00 | 36 | 1004.7 |
| 20260505013505 | 68 | 207 | 4.3 | 9.6 | 0.00 | 0.00 | 0.00 | 35 | 1004.8 |
| 20260505013002 | 68 | 207 | 6.1 | 10.4 | 0.00 | 0.00 | 0.00 | 35 | 1004.8 |
| 20260505012505 | 69 | 211 | 6.1 | 12.2 | 0.00 | 0.00 | 0.00 | 35 | 1004.7 |
| 20260505012406 | 69 | 137 | 5.2 | 12.2 | 0.00 | 0.00 | 0.00 | 34 | 1004.7 |
| 20260505011504 | 69 | 172 | 4.3 | 10.4 | 0.00 | 0.00 | 0.00 | 34 | 1004.8 |
| 20260505011004 | 70 | 199 | 3.5 | 7.8 | 0.00 | 0.00 | 0.00 | 32 | 1004.8 |
| 20260505010504 | 70 | 219 | 3.5 | 7.0 | 0.00 | 0.00 | 0.00 | 30 | 1004.8 |
| 20260505010003 | 70 | 252 | 2.6 | 7.0 | 0.00 | 0.00 | 0.00 | 30 | 1004.8 |
| 20260505005502 | 70 | 234 | 3.5 | 6.1 | 0.00 | 0.00 | 0.00 | 31 | 1004.8 |
| 20260505005001 | 70 | 212 | 2.6 | 6.1 | 0.00 | 0.00 | 0.00 | 30 | 1004.8 |
| 20260505004502 | 70 | 213 | 2.6 | 6.1 | 0.00 | 0.00 | 0.00 | 31 | 1004.8 |
| 20260505004004 | 70 | 142 | 2.6 | 6.1 | 0.00 | 0.00 | 0.00 | 33 | 1004.8 |
| 20260505003941 | 70 | 231 | 2.6 | 7.0 | 0.00 | 0.00 | 0.00 | 31 | 1004.9 |
| 20260505003006 | 70 | 142 | 2.6 | 7.0 | 0.00 | 0.00 | 0.00 | 31 | 1004.8 |
| 20260505002505 | 70 | 143 | 2.6 | 7.8 | 0.00 | 0.00 | 0.00 | 33 | 1004.8 |
| 20260505002002 | 69 | 98 | 2.6 | 7.8 | 0.00 | 0.00 | 0.00 | 31 | 1004.9 |
| 20260505001504 | 69 | 59 | 1.7 | 6.1 | 0.00 | 0.00 | 0.00 | 32 | 1004.9 |
| 20260505001432 | 69 | 82 | 3.5 | 8.7 | 0.00 | 0.00 | 0.00 | 35 | 1005.0 |
| 20260505001207 | 69 | 132 | 1.7 | 6.1 | 0.00 | 0.00 | 0.00 | 35 | 1004.9 |
| 20260505000004 | 69 | 79 | 5.2 | 9.6 | 0.00 | 0.00 | 0.00 | 34 | 1005.0 |
| 20260504235504 | 69 | 117 | 6.1 | 12.2 | 0.00 | 0.00 | 0.00 | 35 | 1005.1 |
| 20260504234958 | 69 | 67 | 7.0 | 12.2 | 0.00 | 0.00 | 0.00 | 33 | 1005.1 |
| 20260504234456 | 69 | 80 | 7.0 | 13.0 | 0.00 | 0.00 | 0.00 | 34 | 1005.1 |
| 20260504233958 | 70 | 49 | 7.8 | 13.9 | 0.00 | 0.00 | 0.00 | 35 | 1005.1 |
| 20260504233456 | 69 | 74 | 8.7 | 15.6 | 0.00 | 0.00 | 0.00 | 34 | 1005.1 |
| 20260504232958 | 69 | 63 | 9.6 | 17.4 | 0.00 | 0.00 | 0.00 | 34 | 1005.3 |
| 20260504232456 | 69 | 71 | 9.6 | 17.4 | 0.00 | 0.00 | 0.00 | 36 | 1005.4 |
| 20260504232418 | 69 | 36 | 9.6 | 15.6 | 0.00 | 0.00 | 0.00 | 36 | 1005.3 |
| 20260504231456 | 69 | 92 | 8.7 | 20.9 | 0.00 | 0.00 | 0.00 | 36 | 1005.3 |
| 20260504231015 | 69 | 59 | 12.2 | 21.7 | 0.00 | 0.00 | 0.00 | 35 | 1005.6 |
| 20260504231001 | 69 | 48 | 9.6 | 20.9 | 0.00 | 0.00 | 0.00 | 37 | 1005.4 |
| 20260504225956 | 69 | 41 | 11.3 | 21.7 | 0.00 | 0.00 | 0.00 | 35 | 1005.5 |
| 20260504225456 | 69 | 61 | 10.4 | 23.5 | 0.00 | 0.00 | 0.00 | 35 | 1005.5 |
| 20260504224956 | 69 | 97 | 10.4 | 23.5 | 0.00 | 0.00 | 0.00 | 35 | 1005.6 |
| 20260504224500 | 68 | 89 | 11.3 | 20.9 | 0.00 | 0.00 | 0.00 | 37 | 1005.6 |
| 20260504223958 | 68 | 65 | 12.2 | 26.9 | 0.00 | 0.00 | 0.00 | 36 | 1005.6 |
| 20260504223916 | 68 | 37 | 11.3 | 26.9 | 0.00 | 0.00 | 0.00 | 35 | 1005.7 |
| 20260504222957 | 68 | 84 | 11.3 | 23.5 | 0.00 | 0.00 | 0.00 | 38 | 1005.7 |
| 20260504222850 | 68 | 78 | 8.7 | 16.5 | 0.00 | 0.00 | 0.00 | 35 | 1005.7 |
| 20260504221942 | 69 | 86 | 6.1 | 12.2 | 0.00 | 0.00 | 0.00 | 37 | 1005.8 |
| 20260504221436 | 68 | 28 | 4.3 | 11.3 | 0.00 | 0.00 | 0.00 | 44 | 1005.8 |
| 20260504220935 | 68 | 83 | 4.3 | 11.3 | 0.00 | 0.00 | 0.00 | 41 | 1006.0 |
| 20260504220456 | 68 | 161 | 7.0 | 16.5 | 0.00 | 0.00 | 0.00 | 36 | 1006.4 |
| 20260504220439 | 67 | 57 | 7.0 | 16.5 | 0.00 | 0.00 | 0.00 | 42 | 1006.2 |
| 20260504215438 | 68 | 92 | 5.2 | 13.0 | 0.00 | 0.00 | 0.00 | 34 | 1006.2 |
| 20260504214938 | 68 | 117 | 5.2 | 10.4 | 0.00 | 0.00 | 0.00 | 34 | 1006.1 |
| 20260504214847 | 68 | 80 | 4.3 | 10.4 | 0.00 | 0.00 | 0.00 | 35 | 1006.1 |
| 20260504213957 | 68 | 99 | 2.6 | 8.7 | 0.00 | 0.00 | 0.00 | 37 | 1006.1 |
| 20260504213946 | 68 | 74 | 3.5 | 7.0 | 0.00 | 0.00 | 0.00 | 37 | 1006.2 |
| 20260504212939 | 68 | 251 | 5.2 | 14.8 | 0.00 | 0.00 | 0.00 | 36 | 1006.0 |
| 20260504212833 | 70 | 318 | 5.2 | 12.2 | 0.00 | 0.00 | 0.00 | 32 | 1005.8 |
| 20260504212611 | 69 | 291 | 7.0 | 14.8 | 0.00 | 0.00 | 0.00 | 34 | 1006.0 |
| 20260504211853 | 71 | 255 | 4.3 | 12.2 | 0.00 | 0.00 | 0.00 | 31 | 1005.8 |
| 20260504211403 | 71 | 99 | 4.3 | 9.6 | 0.00 | 0.00 | 0.00 | 28 | 1005.8 |
| 20260504211132 | 71 | 130 | 3.5 | 7.0 | 0.00 | 0.00 | 0.00 | 29 | 1005.8 |
| 20260504205937 | 72 | 94 | 5.2 | 9.6 | 0.00 | 0.00 | 0.00 | 27 | 1005.7 |
| 20260504205438 | 72 | 88 | 4.3 | 9.6 | 0.00 | 0.00 | 0.00 | 28 | 1005.7 |
| 20260504204936 | 73 | 74 | 2.6 | 9.6 | 0.00 | 0.00 | 0.00 | 28 | 1005.7 |
| 20260504204440 | 74 | 77 | 0.9 | 8.7 | 0.00 | 0.00 | 0.00 | 31 | 1005.8 |
| 20260504203937 | 74 | 323 | 0.9 | 2.6 | 0.00 | 0.00 | 0.00 | 32 | 1005.8 |
| 20260504203440 | 74 | 0 | 0.9 | 2.6 | 0.00 | 0.00 | 0.00 | 28 | 1005.7 |
| 20260504202935 | 75 | 275 | 0.9 | 5.2 | 0.00 | 0.00 | 0.00 | 30 | 1005.7 |
| 20260504202435 | 75 | 262 | 2.6 | 7.8 | 0.00 | 0.00 | 0.00 | 28 | 1005.7 |
| 20260504201938 | 75 | 244 | 3.5 | 7.8 | 0.00 | 0.00 | 0.00 | 28 | 1005.8 |
| 20260504201439 | 75 | 297 | 2.6 | 7.8 | 0.00 | 0.00 | 0.00 | 29 | 1005.8 |
| 20260504200935 | 75 | 281 | 1.7 | 6.1 | 0.00 | 0.00 | 0.00 | 35 | 1005.8 |
| 20260504200435 | 75 | 287 | 1.7 | 4.3 | 0.00 | 0.00 | 0.00 | 34 | 1006.0 |
| 20260504195940 | 75 | 263 | 1.7 | 7.8 | 0.00 | 0.00 | 0.00 | 29 | 1006.0 |
| 20260504195436 | 76 | 225 | 2.6 | 7.8 | 0.00 | 0.00 | 0.00 | 34 | 1006.0 |
| 20260504195333 | 76 | 262 | 3.5 | 7.0 | 0.00 | 0.00 | 0.00 | 28 | 1006.1 |
| 20260504194848 | 76 | 192 | 2.6 | 7.8 | 0.00 | 0.00 | 0.00 | 28 | 1006.1 |
| 20260504193933 | 77 | 239 | 1.7 | 7.8 | 0.00 | 0.00 | 0.00 | 28 | 1006.1 |
| 20260504193434 | 77 | 247 | 2.6 | 7.0 | 0.00 | 0.00 | 0.00 | 29 | 1006.2 |
| 20260504192930 | 76 | 250 | 3.5 | 11.3 | 0.00 | 0.00 | 0.00 | 28 | 1006.3 |
| 20260504192431 | 76 | 216 | 4.3 | 11.3 | 0.00 | 0.00 | 0.00 | 29 | 1006.3 |
| 20260504191933 | 76 | 241 | 3.5 | 8.7 | 0.00 | 0.00 | 0.00 | 27 | 1006.3 |
| 20260504191433 | 77 | 147 | 3.5 | 8.7 | 0.00 | 0.00 | 0.00 | 25 | 1006.3 |
| 20260504190929 | 77 | 246 | 4.3 | 10.4 | 0.00 | 0.00 | 0.00 | 27 | 1006.3 |
| 20260504190423 | 77 | 246 | 3.5 | 10.4 | 0.00 | 0.00 | 0.00 | 25 | 1006.5 |
| 20260504185927 | 78 | 186 | 4.3 | 10.4 | 0.00 | 0.00 | 0.00 | 25 | 1006.5 |
| 20260504185422 | 78 | 238 | 5.2 | 10.4 | 0.00 | 0.00 | 0.00 | 24 | 1006.6 |
| 20260504185132 | 78 | 228 | 5.2 | 10.4 | 0.00 | 0.00 | 0.00 | 26 | 1006.8 |
| 20260504184958 | 78 | 258 | 4.3 | 8.7 | 0.00 | 0.00 | 0.00 | 26 | 1006.8 |
| 20260504183922 | 77 | 332 | 6.1 | 12.2 | 0.00 | 0.00 | 0.00 | 27 | 1006.8 |
| 20260504183419 | 78 | 151 | 7.0 | 13.9 | 0.00 | 0.00 | 0.00 | 26 | 1006.9 |
| 20260504182917 | 78 | 155 | 5.2 | 13.9 | 0.00 | 0.00 | 0.00 | 27 | 1006.9 |
| 20260504182816 | 77 | 227 | 6.1 | 13.9 | 0.00 | 0.00 | 0.00 | 30 | 1007.0 |
| 20260504182613 | 78 | 175 | 5.2 | 13.9 | 0.00 | 0.00 | 0.00 | 28 | 1007.0 |
| 20260504181413 | 77 | 244 | 5.2 | 10.4 | 0.00 | 0.00 | 0.00 | 28 | 1007.0 |
| 20260504180912 | 77 | 167 | 6.1 | 10.4 | 0.00 | 0.00 | 0.00 | 26 | 1007.2 |
| 20260504180412 | 76 | 176 | 6.1 | 13.9 | 0.00 | 0.00 | 0.00 | 28 | 1007.2 |
| 20260504175911 | 77 | 170 | 6.1 | 13.9 | 0.00 | 0.00 | 0.00 | 28 | 1007.2 |
| 20260504175413 | 76 | 164 | 7.0 | 17.4 | 0.00 | 0.00 | 0.00 | 29 | 1007.2 |
| 20260504174910 | 76 | 177 | 7.0 | 17.4 | 0.00 | 0.00 | 0.00 | 27 | 1007.3 |
| 20260504174411 | 76 | 119 | 6.1 | 15.6 | 0.00 | 0.00 | 0.00 | 31 | 1007.3 |
| 20260504173913 | 76 | 207 | 7.0 | 13.0 | 0.00 | 0.00 | 0.00 | 28 | 1007.4 |
| 20260504173702 | 75 | 211 | 6.1 | 13.0 | 0.00 | 0.00 | 0.00 | 30 | 1007.4 |
| 20260504173641 | 75 | 204 | 6.1 | 14.8 | 0.00 | 0.00 | 0.00 | 30 | 1007.7 |
| 20260504173456 | 75 | 140 | 7.0 | 13.0 | 0.00 | 0.00 | 0.00 | 29 | 1007.4 |
| 20260504171925 | 75 | 232 | 7.0 | 14.8 | 0.00 | 0.00 | 0.00 | 34 | 1007.6 |
| 20260504171421 | 75 | 187 | 7.0 | 13.9 | 0.00 | 0.00 | 0.00 | 30 | 1007.6 |
| 20260504171001 | 74 | 148 | 6.1 | 13.0 | 0.00 | 0.00 | 0.00 | 33 | 1007.6 |
| 20260504170929 | 75 | 213 | 7.0 | 13.0 | 0.00 | 0.00 | 0.00 | 32 | 1007.7 |
| 20260504160403 | 68 | 199 | 2.6 | 5.2 | 0.00 | 0.00 | 0.00 | 37 | 1007.7 |